Location: C.E.K. Mees Observatory
(42.7003°N, 77.4088°W)
Time: 16:54:35
(UTC-05:00)

Vanguard 3 - Pass Details

Date: 25 June 2018
Orbit: 508 x 3263 km, 33.4° (Epoch: 09 December)

Event Time Altitude Azimuth Distance (km) Brightness Sun altitude
Rises 03:01:56 0° 227° (SW) 2,735 - -19.2°
Reaches altitude 10° 03:04:13 10° 211° (SSW) 1,991 - -19.1°
Exits shadow 03:07:33 24° 162° (SSE) 1,546 8.2 -18.8°
Maximum altitude 03:07:50 24° 157° (SSE) 1,565 8.3 -18.7°
Drops below altitude 10° 03:12:51 10° 106° (ESE) 2,860 10.1 -18.3°
Sets 03:16:53 0° 94° (E) 4,305 11.2 -17.9°
